Погода в Жымпиты

Казахстан     50°15′32″N   52°36′11″E
темп.,
°C
ветер,
м/с
пор.,
м/с
влажн.,
%
обл.,
%
осадки,
мм/ч
давл.,
гПа
погр.,
м
25 февраля, чт
чт2523:00−24сз713887 0.0 1032295
02:00−27сз47930 0.0 1034108
05:00−29сз45930 0.0 103559
08:00−29сз34930 0.0 103634
11:00−26сз22900 0.0 103776
14:00−23юз238546 0.0 1037227
17:00−21ююз358973 0.0 1035255
20:00−19ю4891100 0.0 1033277
26 февраля, пт
пт2623:00−16ю61096100 0.3 1031413
02:00−14ю71295100 1.1 1028573
05:00−14ю71294100 2.3 1025559
08:00−13ю71295100 1.1 1022490
11:00−12ююв71194100 2.2 1021474
14:00−9ююв6992100 0.5 1019561
17:00−6ююв4793100 0.7 1018443
20:00−8юв469688 0.1 101797
27 февраля, сб
сб2723:00−7ю359793 0.1 101588
02:00−5ю5996100 0.4 1012275
05:00−2ю81495100 1.3 1009405
08:00+2юз814100100 2.4 1005419
11:00+2зюз614100100 4.7 1005396
14:00+1зюз510100100 0.0 1005302
17:00+1зюз51199100 0.1 1006408
20:00+1зюз7129499 0.0 1004637
28 февраля, вс
вс2823:000зюз7129099 0.1 1005561
02:000зюз71295100 0.1 1004584
05:00−1зюз81395100 0.3 1004631
08:00−6сз6109298 0.2 1006349
11:00−9зсз589166 0.2 1007351
14:00−8зсз578840 0.0 1009503
17:00−8зсз469159 0.0 1011390
20:00−12зсз349322 0.0 101234
1 марта, пн
пн123:00−14сз339311 0.0 101521
02:00−15сз23930 0.0 101520
05:00−16сз23930 0.0 101720
08:00−17сз23940 0.0 101920
11:00−15сз34920 0.0 1021165
14:00−14сз349125 0.0 1022268
17:00−14сз369139 0.0 1023371
20:00−17сз349452 0.0 102557